Date String (YYYY-MM-DD hh:mm:ss) UTC,Instrument flags,absolute air pressure of the measurement (hPa),sample flow rate (lpm),inlet stack bypass flow (lpm),air temperature of the measurement (°C),ambient temperature measured by the external sensor (°C),aerosol sample conditioner tube jacket temperature (°C),OPC LED temperature (°C),internal box temperature (°C),relative humidity of the measurement (%),span deviation,mass concentration of particles derived from Lorenz-Mie calculation of OPC scattering (μg/m³),mass concentration of particles derived from Lorenz-Mie calculation of OPC scattering (μg/m³),mass concentration of particles derived from Lorenz-Mie calculation of OPC scattering (μg/m³)
DateTimeUTC,F1_M11,P_M11,Q1_M11,Q2_M11,T1_M11,T2_M11,T3_M11,T4_M11,T5_M11,U1_M11,ZSPAN_M11,X0_M11,X2_M11,X1_M11
2023-07-02 19:00:00,SystemResetWarning,0832.4,4.99,000.00,028.8,027.3,000.0,037.1,030.5,22.3,0000.0,0008.10,0004.83,0004.47
2023-07-02 19:01:00,SystemResetWarning,0832.4,4.99,000.00,028.8,027.5,000.0,037.2,030.6,23.0,0000.0,0008.05,0004.81,0004.46
2023-07-02 19:02:00,SystemResetWarning,0832.4,4.99,000.00,028.8,026.3,000.0,037.1,030.4,25.2,0000.0,0008.69,0004.81,0004.47
2023-07-02 19:03:00,SystemResetWarning,0832.4,5.00,000.00,028.8,024.8,000.0,037.0,030.2,24.2,0000.0,0009.41,0004.80,0004.45
2023-07-02 19:04:00,SystemResetWarning,0832.4,5.01,000.00,028.7,024.6,000.0,036.9,030.1,23.5,0000.0,0009.67,0004.80,0004.44
2023-07-02 19:05:00,SystemResetWarning,0832.4,5.01,000.00,028.6,025.0,000.0,036.9,029.9,23.5,0000.0,0009.96,0004.79,0004.44
2023-07-02 19:06:00,SystemResetWarning,0832.4,4.99,000.00,028.6,025.4,000.0,037.0,030.0,24.7,0000.0,0010.52,0004.80,0004.43
2023-07-02 19:07:00,SystemResetWarning,0832.5,5.01,000.00,028.6,025.9,000.0,037.0,030.1,25.8,0000.0,0010.85,0004.78,0004.42
2023-07-02 19:08:00,SystemResetWarning,0832.5,5.00,000.00,028.6,026.3,000.0,037.0,030.2,26.9,0000.0,0011.15,0004.78,0004.41
2023-07-02 19:09:00,SystemResetWarning,0832.4,4.99,000.00,028.6,026.7,000.0,037.0,030.2,27.5,0000.0,0011.21,0004.76,0004.39
2023-07-02 19:10:00,SystemResetWarning,0832.4,4.99,000.00,028.7,027.0,000.0,037.0,030.3,26.3,0000.0,0011.21,0004.76,0004.37
2023-07-02 19:11:00,SystemResetWarning,0832.3,5.00,000.00,028.7,027.3,000.0,037.1,030.4,24.4,0000.0,0011.95,0004.76,0004.37
2023-07-02 19:12:00,SystemResetWarning,0832.3,5.02,000.00,028.7,027.5,000.0,037.1,030.5,24.6,0000.0,0012.75,0004.76,0004.36
2023-07-02 19:13:00,SystemResetWarning,0832.2,5.00,000.00,028.8,027.4,000.0,037.1,030.5,24.6,0000.0,0012.36,0004.76,0004.36
2023-07-02 19:14:00,SystemResetWarning,0832.2,4.98,000.00,028.8,025.8,000.0,037.0,030.3,24.4,0000.0,0012.06,0004.76,0004.37
2023-07-02 19:15:00,SystemResetWarning,0832.2,5.02,000.00,028.7,024.4,000.0,036.9,030.1,24.1,0000.0,0012.22,0004.78,0004.39
2023-07-02 19:16:00,SystemResetWarning,0832.2,5.00,000.00,028.6,024.4,000.0,036.8,029.9,23.4,0000.0,0011.89,0004.79,0004.39
2023-07-02 19:17:00,SystemResetWarning,0832.2,4.99,000.00,028.5,024.8,000.0,036.9,029.8,24.5,0000.0,0012.35,0004.84,0004.41
2023-07-02 19:18:00,SystemResetWarning,0832.2,5.00,000.00,028.5,025.2,000.0,036.9,029.9,26.6,0000.0,0012.25,0004.88,0004.45
2023-07-02 19:19:00,SystemResetWarning,0832.3,5.01,000.00,028.5,025.7,000.0,036.9,030.0,28.1,0000.0,0012.05,0004.91,0004.49
2023-07-02 19:20:00,SystemResetWarning,0832.2,5.00,000.00,028.5,026.2,000.0,036.9,030.1,28.0,0000.0,0012.10,0004.94,0004.51
2023-07-02 19:21:00,SystemResetWarning,0832.2,5.00,000.00,028.5,026.6,000.0,037.0,030.2,27.7,0000.0,0012.43,0004.97,0004.53
2023-07-02 19:22:00,SystemResetWarning,0832.2,5.00,000.00,028.6,026.9,000.0,037.0,030.3,29.0,0000.0,0012.81,0005.00,0004.55
2023-07-02 19:23:00,SystemResetWarning,0832.2,4.99,000.00,028.6,027.2,000.0,037.0,030.3,27.9,0000.0,0011.97,0005.02,0004.57
2023-07-02 19:24:00,SystemResetWarning,0832.2,5.01,000.00,028.7,027.4,000.0,037.0,030.4,30.0,0000.0,0011.71,0005.01,0004.57
2023-07-02 19:25:00,SystemResetWarning,0832.3,5.00,000.00,028.7,027.6,000.0,037.1,030.5,29.6,0000.0,0011.12,0005.00,0004.56
2023-07-02 19:26:00,SystemResetWarning,0832.2,4.99,000.00,028.8,027.3,000.0,037.0,030.5,30.8,0000.0,0010.46,0004.99,0004.56
2023-07-02 19:27:00,SystemResetWarning,0832.2,4.98,000.00,028.8,025.8,000.0,037.0,030.3,32.0,0000.1,0010.67,0004.98,0004.57
2023-07-02 19:28:00,SystemResetWarning,0832.2,5.01,000.00,028.7,025.4,000.0,036.9,030.2,30.2,0000.5,0010.41,0004.98,0004.57
2023-07-02 19:29:00,SystemResetWarning,0832.2,5.01,000.00,028.6,025.6,000.0,036.9,030.0,29.0,0000.9,0010.15,0004.99,0004.56
2023-07-02 19:30:00,SystemResetWarning,0832.3,4.99,000.00,028.6,026.0,000.0,037.0,030.1,30.9,0000.4,0010.29,0005.00,0004.55
2023-07-02 19:31:00,SystemResetWarning,0832.3,5.00,000.00,028.6,026.4,000.0,037.0,030.2,26.9,0000.0,0010.21,0004.99,0004.54
2023-07-02 19:32:00,SystemResetWarning,0832.3,5.01,000.00,028.7,026.8,000.0,037.0,030.3,26.2,-000.0,0010.12,0005.01,0004.54
2023-07-02 19:33:00,SystemResetWarning,0832.3,5.00,000.00,028.7,027.1,000.0,037.1,030.4,27.2,0000.0,0009.30,0005.01,0004.55
2023-07-02 19:34:00,SystemResetWarning,0832.3,4.99,000.00,028.8,027.3,000.0,037.1,030.5,28.1,0000.0,0009.86,0005.00,0004.53
2023-07-02 19:35:00,SystemResetWarning,0832.3,5.00,000.00,028.8,027.5,000.0,037.1,030.6,25.6,0000.0,0010.68,0005.02,0004.55
2023-07-02 19:36:00,SystemResetWarning,0832.3,4.98,000.00,028.8,026.6,000.0,037.1,030.5,26.7,0000.0,0010.74,0005.05,0004.55
2023-07-02 19:37:00,SystemResetWarning,0832.3,5.01,000.00,028.8,024.9,000.0,037.0,030.2,24.2,0000.0,0010.73,0005.05,0004.55
2023-07-02 19:38:00,SystemResetWarning,0832.2,5.01,000.00,028.7,024.5,000.0,036.9,030.0,26.0,0000.0,0010.76,0005.07,0004.55
2023-07-02 19:39:00,SystemResetWarning,0832.2,4.99,000.00,028.6,024.8,000.0,036.9,029.9,26.7,0000.0,0010.39,0005.05,0004.54
2023-07-02 19:40:00,SystemResetWarning,0832.2,5.00,000.00,028.5,025.3,000.0,036.9,029.9,25.4,0000.0,0010.52,0005.01,0004.53
2023-07-02 19:41:00,SystemResetWarning,0832.2,5.00,000.00,028.5,025.8,000.0,037.0,030.0,24.8,0000.0,0010.53,0004.96,0004.51
2023-07-02 19:42:00,SystemResetWarning,0832.2,4.98,000.00,028.6,026.2,000.0,037.0,030.1,25.1,0000.0,0010.72,0004.98,0004.51
2023-07-02 19:43:00,SystemResetWarning,0832.2,5.01,000.00,028.6,026.6,000.0,037.0,030.2,25.1,0000.0,0010.68,0004.96,0004.51
2023-07-02 19:44:00,SystemResetWarning,0832.2,5.02,000.00,028.6,026.9,000.0,037.0,030.3,24.3,0000.0,0010.67,0004.95,0004.51
2023-07-02 19:45:00,SystemResetWarning,0832.2,5.00,000.00,028.7,027.2,000.0,037.1,030.4,25.1,0000.0,0010.29,0004.96,0004.52
2023-07-02 19:46:00,SystemResetWarning,0832.2,4.99,000.00,028.7,027.5,000.0,037.1,030.5,25.1,0000.0,0009.21,0004.95,0004.51
2023-07-02 19:47:00,SystemResetWarning,0832.2,5.00,000.00,028.8,027.5,000.0,037.1,030.5,26.1,0000.0,0009.81,0004.91,0004.51
2023-07-02 19:48:00,SystemResetWarning,0832.2,4.99,000.00,028.8,026.2,000.0,037.0,030.4,24.5,0000.0,0009.89,0004.91,0004.52
2023-07-02 19:49:00,SystemResetWarning,0832.2,5.01,000.00,028.7,025.5,000.0,036.9,030.3,24.2,0000.0,0009.88,0004.90,0004.52
2023-07-02 19:50:00,SystemResetWarning,0832.2,5.01,000.00,028.7,025.7,000.0,036.9,030.1,23.8,0000.0,0009.76,0004.87,0004.52
2023-07-02 19:51:00,SystemResetWarning,0832.2,5.00,000.00,028.7,026.0,000.0,037.0,030.1,23.6,0000.0,0009.78,0004.87,0004.52
2023-07-02 19:52:00,SystemResetWarning,0832.1,4.99,000.00,028.7,026.4,000.0,037.0,030.2,24.3,0000.0,0009.46,0004.89,0004.54
2023-07-02 19:53:00,SystemResetWarning,0832.1,4.99,000.00,028.7,026.7,000.0,037.1,030.3,24.7,-000.4,0009.23,0004.87,0004.54
2023-07-02 19:54:00,SystemResetWarning,0832.1,5.00,000.00,028.7,027.1,000.0,037.1,030.4,26.5,0000.0,0009.35,0004.85,0004.54
2023-07-02 19:55:00,SystemResetWarning,0832.2,5.01,000.00,028.8,027.3,000.0,037.1,030.5,25.8,0000.0,0009.81,0004.85,0004.52
2023-07-02 19:56:00,SystemResetWarning,0832.2,5.00,000.00,028.8,027.5,000.0,037.2,030.6,27.8,0000.0,0010.13,0004.85,0004.51
2023-07-02 19:57:00,SystemResetWarning,0832.2,4.98,000.00,028.9,027.2,000.0,037.1,030.6,28.2,0000.0,0010.40,0004.85,0004.51
2023-07-02 19:58:00,SystemResetWarning,0832.2,5.00,000.00,028.8,025.4,000.0,037.0,030.4,25.2,-000.5,0009.78,0004.87,0004.51
2023-07-02 19:59:00,SystemResetWarning,0832.1,5.02,000.00,028.7,024.5,000.0,036.9,030.2,24.6,-001.9,0009.61,0004.85,0004.50
